Epoch 2002 Feb. 15.0 TT = JDT 2452320.5
T 2002 Feb. 17.57361 TT MPC
q 1.3604973 (2000.0) P Q
n 0.15201651 Peri. 24.73700 +0.49842496 -0.86400843
a 3.4770335 Node 35.48811 +0.77360290 +0.40622466
e 0.6087189 Incl. 7.03961 +0.39129415 +0.29744068
P 6.48
From 155 observations 2001 Aug. 9-2009 Mar. 18, mean residual 0".7.